Flag for Japan Weather past 2 weeks in Fukushima, Japan

Now
62 °F

Cool.


Feels Like: 62 °F
Forecast: 48 / 84 °F
Wind: 3 mph from East

Location: Wakamatsu

Current Time: May 26, 2015 at 1:08:56 AM

Latest Report: May 26, 2015 at 12:00 AM


Visibility: 13 mi

Pressure: 29.81 "Hg

Humidity: 70%

Dew point: 52 °F

Location of FukushimaLocation

Historic Weather in Fukushima — Graph

°F

Fukushima temperature yesterday

Maximum temperature yesterday: 82 °F (at 1:00 PM)
Minimum temperature yesterday: 55 °F (at 4:00 AM)
Average temperature yesterday: 69 °F

Past Weeks' High & Low Weather Summary

 TemperatureHumidityPressure
High85 °F (May 15, 2:00 PM)100% (May 16, 7:00 AM)30.31 "Hg (May 16, 7:00 AM)
Low41 °F (May 11, 4:00 AM)16% (May 11, 3:00 PM)29.47 "Hg (May 20, 1:00 PM)
Average65 °F61%29.81 "Hg
* Reported May 10 11:00 PM — May 25 11:00 PM, Fukushima, Weather by CustomWeather, © 2015

Note: Actual official high and low records may vary slightly from our data, if they occured in-between our weather recording intervals... More about our weather records

Advertising

Fukushima weather history for previous 24 hours

 ConditionsComfort  
Time TempWeatherWind HumidityBarometerVisibility
11:00 PM
Mon, May 25
65 °FMild.3 mph63%29.81 "Hg12 mi
10:00 PM65 °FLight rain. Overcast.3 mph66%29.81 "Hg12 mi
9:00 PM66 °FLight rain. Overcast.7 mph68%29.83 "Hg12 mi
8:00 PM71 °FMild.8 mph44%29.81 "Hg12 mi
7:00 PM71 °FLight rain. Overcast.3 mph54%29.81 "Hg12 mi
6:00 PM75 °FMild.2 mph48%29.78 "Hg12 mi
5:00 PM77 °FMild.7 mph45%29.77 "Hg12 mi
4:00 PM78 °FPleasantly warm.10 mph36%29.76 "Hg12 mi
3:00 PM79 °FPleasantly warm.14 mph32%29.76 "Hg12 mi
2:00 PM81 °FPleasantly warm.13 mph29%29.76 "HgN/A
1:00 PM82 °FPleasantly warm.14 mph22%29.77 "HgN/A
12:00 PM81 °FPleasantly warm.12 mph26%29.78 "HgN/A
11:00 AM80 °FPleasantly warm.13 mph29%29.79 "Hg12 mi
10:00 AM75 °FMild.5 mph42%29.81 "Hg12 mi
9:00 AM69 °FMild.6 mph59%29.85 "Hg12 mi
8:00 AM65 °FMild.3 mph67%29.87 "Hg12 mi
7:00 AM60 °FCool.2 mph75%29.89 "Hg12 mi
5:00 AM56 °FCool.1 mph85%29.87 "Hg11 mi
4:00 AM55 °FCool.1 mph90%29.86 "Hg10 mi
3:00 AM58 °FCool.2 mph84%29.83 "Hg12 mi
2:00 AM58 °FCool.3 mph85%29.83 "Hg12 mi
1:00 AM61 °FCool.2 mph76%29.82 "Hg12 mi
Weather by CustomWeather, © 2015

See weather overviewHow to use our weather pages